Temp
18 20 20 20 21 20 20 19 19 19 18 19 20 20 20 21 21 22 21 19 17 21 22 20 21 22 22 22 22 19 17 18 19 19 18 19 19 19 19 19 19 19 19 19 18 17 17 16 17 16 16 16 16 16 17 18 18 18 18 18 17 17 17 17 17 17 17 17 17 17 17 17 17 16 16 15 15 15 15 15 15 15 15 15 15 15
18 20 20 20 20 19 18 17 17 17 18 19 20 20 20 20 21 21 20 19 17 20 21 19 20 22 22 22 21 19 19 20 20 19 19 19 19 19 19 19 19 19 19 18 18 17 16 16 16 16 16 15 16 16 17 18 18 18 18 18 17 17 17 17 17 17 17 17 17 17 17 17 16 16 15 15 15 15 14 14 14 14 14 14 14 14
19 20 20 19 17 16 16 15 16 18 18 18 19 20 20 19 20 20 20 19 17 20 22 19 21 23 22 21 20 19 21 21 19 19 19 19 19 19 19 19 19 19 18 18 18 17 16 16 16 16 15 15 16 16 17 18 18 18 18 18 17 17 17 17 17 17 17 17 17 17 17 17 16 16 15 15 15 15 14 14 14 14 14 14 14 14
20 20 19 17 15 17 17 15 16 18 18 19 19 20 20 19 19 21 21 19 17 18 20 20 21 22 21 20 20 18 18 19 18 17 17 18 19 19 19 19 19 19 18 18 18 17 17 16 16 15 15 15 16 16 17 17 18 18 18 18 17 17 17 17 17 17 17 17 17 17 17 17 16 16 16 15 15 15 14 14 14 14 14 14 14 14
21 19 17 16 16 18 19 16 17 20 19 19 19 20 20 20 20 20 20 19 18 17 17 19 21 21 21 21 21 19 16 18 18 18 18 17 17 18 18 19 19 19 19 18 18 17 17 17 16 15 15 15 15 16 17 17 18 18 18 18 17 17 17 17 17 17 18 17 17 17 17 17 16 16 15 15 15 15 14 14 14 14 13 13 14 14
20 17 15 17 18 17 19 18 18 20 20 19 20 20 21 21 21 20 19 20 20 20 17 18 21 21 20 21 22 19 19 20 19 19 20 19 17 17 17 18 18 18 19 18 18 18 17 17 16 15 15 15 15 16 17 18 18 18 19 18 18 17 17 17 17 18 18 18 17 17 17 16 16 16 16 16 15 15 14 14 14 13 13 13 13 14
19 15 15 18 18 18 18 19 18 19 20 20 20 20 19 20 21 20 20 20 21 20 17 16 20 21 20 22 21 18 20 22 21 20 20 18 18 18 18 18 18 18 18 18 18 18 18 17 17 16 15 15 15 16 17 17 18 18 19 18 18 17 17 17 18 18 18 18 18 18 18 17 17 17 17 17 16 15 15 14 14 14 13 13 13 13
18 17 17 18 19 19 19 20 18 18 20 21 18 18 19 20 21 20 20 20 19 19 18 17 19 20 20 21 19 17 20 22 22 22 20 19 18 18 18 18 18 18 18 17 17 18 18 18 17 16 16 15 15 16 17 17 17 18 18 18 18 17 17 17 18 18 18 18 18 18 18 18 18 18 18 17 16 15 15 14 14 14 13 13 13 13
17 19 19 19 19 20 21 21 19 18 21 19 16 16 17 19 19 19 20 20 18 18 20 19 18 20 20 21 19 19 21 22 21 21 20 19 18 18 18 17 17 17 17 18 18 18 18 18 17 17 16 15 16 16 16 17 17 18 18 18 18 17 17 17 18 18 18 18 18 18 18 17 17 17 17 17 16 16 15 14 14 14 13 13 13 13
17 19 19 19 20 21 21 19 17 19 20 17 14 16 17 16 17 18 19 19 18 18 21 19 18 19 20 21 20 20 21 21 20 19 19 19 18 18 17 16 16 16 16 17 17 18 18 18 17 17 16 15 15 16 16 16 17 17 18 18 17 17 17 17 18 18 18 18 18 18 18 18 17 17 17 17 17 16 15 15 14 14 14 13 13 13
17 16 16 18 20 20 19 16 14 17 17 15 16 19 19 18 18 18 18 19 19 19 20 18 16 18 20 20 20 19 19 18 17 18 18 18 18 18 17 16 16 15 15 15 17 18 18 18 17 16 16 15 15 15 15 16 16 17 18 17 17 17 17 17 18 18 18 18 18 18 18 18 17 17 17 17 17 16 15 15 14 14 14 14 13 13
18 17 17 18 18 18 18 17 15 15 15 16 19 20 20 19 19 19 18 18 18 19 18 15 14 17 19 20 19 18 17 16 16 17 17 17 17 17 16 16 15 14 14 14 15 17 17 17 16 16 16 15 15 15 15 16 16 16 17 17 17 17 17 17 17 18 18 18 18 18 18 18 18 18 17 17 17 17 16 16 15 14 14 14 14 14
20 20 18 17 18 18 20 19 17 16 16 18 20 20 20 19 18 19 19 18 18 19 17 14 14 18 19 20 19 17 17 16 16 16 16 16 16 16 16 16 15 14 13 14 15 16 17 17 16 16 16 15 15 14 15 15 15 16 18 18 17 17 17 18 17 17 18 18 18 18 18 19 18 18 18 18 18 17 17 17 16 15 15 14 14 14
20 20 18 19 19 18 20 21 20 19 18 19 20 20 20 19 17 17 17 17 18 18 16 14 15 18 19 19 18 17 17 16 16 16 16 15 15 15 15 15 15 14 14 14 15 16 16 16 17 16 16 15 14 14 15 15 15 17 18 17 18 18 18 18 18 17 18 18 18 18 19 19 19 18 18 18 18 17 17 17 17 16 16 15 15 15
19 20 19 20 19 18 19 20 20 20 18 18 19 19 20 19 18 18 18 18 19 18 16 15 17 19 19 18 17 17 17 16 16 16 15 15 15 15 15 15 15 14 14 14 15 15 15 16 16 16 16 15 14 14 14 14 16 17 16 16 17 17 18 18 17 17 17 18 18 18 18 19 19 19 18 18 18 18 18 17 17 17 16 16 16 15
17 19 19 18 17 17 19 18 18 20 19 16 17 19 20 20 20 18 16 17 18 18 17 16 17 18 18 17 16 17 17 16 16 15 15 15 15 15 15 15 14 14 13 13 14 14 15 16 16 15 15 15 14 14 14 14 15 16 15 15 16 16 16 17 16 16 16 17 18 18 18 18 19 19 18 18 18 18 18 17 17 17 17 17 16 16
17 19 19 18 17 17 17 17 17 19 20 17 17 20 18 18 19 18 14 14 15 17 17 16 17 18 17 18 17 17 17 17 16 16 16 15 15 15 15 14 14 14 13 13 13 13 14 15 15 15 15 15 14 14 14 14 15 16 15 15 15 15 16 16 15 15 15 17 17 17 18 18 18 19 19 18 18 18 18 17 17 17 17 17 16 16
17 19 19 18 19 18 15 17 18 17 18 19 19 19 17 17 18 18 17 15 15 17 17 15 17 18 18 18 18 17 17 17 16 16 16 15 15 15 14 13 13 13 13 13 12 12 12 13 14 14 14 14 14 14 14 15 15 16 16 15 15 15 15 15 15 16 17 17 17 17 17 18 18 18 19 19 18 18 17 17 17 17 17 17 16 16
15 19 19 16 17 18 16 17 19 17 17 18 19 18 18 19 19 18 17 17 16 16 16 16 15 16 18 19 18 18 18 17 16 16 16 16 15 14 13 13 12 12 12 13 12 12 12 12 12 13 13 14 14 14 14 15 15 16 16 15 15 15 15 15 16 16 17 16 16 17 18 18 18 18 19 19 18 18 17 17 18 18 17 17 17 16
15 17 19 17 16 17 17 19 20 19 17 17 18 17 17 18 19 18 18 18 18 16 15 16 16 17 19 18 18 18 17 17 16 16 16 15 14 13 12 12 11 12 12 12 12 12 12 12 11 11 12 12 13 13 13 14 14 14 15 15 15 15 15 16 16 16 16 16 16 17 17 18 18 19 18 19 18 18 18 17 18 18 17 17 17 16
15 16 17 18 17 17 19 18 18 19 19 18 19 18 17 17 16 17 17 17 18 17 15 16 16 19 19 16 17 19 17 16 16 16 16 14 13 12 11 11 11 11 11 11 12 12 12 12 12 11 11 12 12 12 13 13 13 13 14 14 15 15 15 16 16 16 16 16 16 16 16 17 17 18 18 18 18 18 18 18 18 18 18 17 17 16
16 16 16 17 18 18 19 16 15 16 17 17 19 19 18 17 17 18 17 15 16 17 16 15 16 19 18 15 16 17 16 16 15 15 15 14 12 12 11 10 10 10 11 11 11 11 11 12 12 11 11 11 11 11 12 12 12 13 13 13 13 14 14 15 16 16 16 16 17 17 16 16 16 17 17 18 18 18 18 18 18 18 17 17 17 16
14 15 16 16 18 18 16 13 12 13 14 15 16 16 17 18 18 19 18 16 16 15 15 15 16 18 16 14 14 15 14 14 13 13 14 13 12 11 11 10 10 10 10 10 10 11 11 11 11 11 11 10 10 11 11 11 11 12 12 13 13 13 13 14 14 15 15 16 16 17 17 18 17 16 16 16 17 18 18 18 17 18 17 17 17 16
14 15 15 16 17 17 15 13 12 12 14 16 16 14 15 16 17 18 17 17 16 15 15 15 15 17 16 13 12 12 12 12 12 12 13 12 11 11 10 10 10 10 10 10 10 11 11 11 11 11 11 10 10 10 11 11 11 12 12 12 12 12 12 13 13 13 14 14 15 16 17 18 18 17 15 15 16 17 17 17 17 17 17 17 17 16
15 15 15 15 15 16 16 15 15 15 15 16 15 13 13 14 15 15 15 16 16 16 16 16 16 17 16 12 12 13 12 13 12 11 12 12 11 11 10 10 10 10 10 10 10 10 11 11 11 11 10 10 10 10 9 10 10 11 12 12 12 12 12 12 12 13 13 13 14 14 15 16 17 16 15 15 16 17 17 17 16 17 17 17 17 16
14 14 14 15 14 14 15 16 16 16 15 15 14 14 13 14 15 16 16 16 16 15 15 16 17 17 16 14 14 13 13 13 13 11 11 11 11 10 10 10 9 9 10 10 10 10 10 10 11 11 10 10 10 9 9 9 9 10 11 12 12 13 13 13 12 12 12 12 13 13 14 15 15 15 15 15 15 16 16 16 15 16 16 17 17 16
13 13 14 15 15 15 16 16 14 13 14 15 15 15 14 13 13 15 16 16 16 15 14 15 16 16 16 15 15 14 13 14 13 12 12 11 11 10 10 9 9 9 9 9 9 10 10 10 10 10 10 10 10 10 9 9 9 9 10 10 10 11 12 13 13 13 12 12 12 12 13 14 14 14 15 15 14 15 15 15 15 15 15 16 17 16
13 13 13 13 14 14 15 14 12 11 13 14 14 15 15 13 13 14 15 15 15 15 15 15 15 15 16 16 16 15 13 13 13 13 12 12 11 10 9 9 9 10 10 10 9 10 10 10 10 10 10 9 9 10 9 10 10 10 10 10 10 11 11 12 13 13 13 12 12 12 12 13 13 14 14 14 14 14 14 14 14 15 15 16 16 15
13 13 12 12 13 13 13 13 12 11 12 13 13 14 14 14 13 14 15 15 14 15 16 16 15 15 15 16 17 16 15 14 13 12 11 10 10 9 9 9 10 10 10 10 10 10 9 9 9 9 9 9 9 10 9 10 10 10 10 10 10 11 12 12 13 13 13 13 12 12 12 12 12 13 13 13 13 13 13 14 14 14 15 15 15 15
13 13 12 11 12 13 13 12 12 12 12 12 12 13 13 13 13 13 14 14 14 15 15 14 15 15 15 16 17 15 13 13 12 11 10 10 10 9 9 10 10 10 10 10 10 10 9 9 9 9 9 9 9 9 9 9 9 9 9 9 10 10 11 11 12 12 12 12 12 12 12 12 12 12 12 12 12 13 13 13 13 13 13 13 13 13
12 12 11 11 12 12 13 13 12 12 12 12 13 13 12 12 12 12 12 12 12 13 13 13 13 13 14 14 14 11 9 10 11 10 10 10 10 9 9 10 10 11 11 10 10 10 9 9 10 10 10 10 9 9 9 9 9 9 9 9 9 9 10 11 11 12 12 12 12 12 12 12 11 11 12 12 12 12 12 12 12 11 11 10 11 12
12 11 10 11 11 12 12 13 13 12 12 11 12 12 11 12 12 11 11 11 12 13 13 12 12 13 13 13 11 10 10 10 11 11 11 10 9 9 10 11 11 11 11 11 10 10 10 10 10 10 10 9 9 9 9 9 9 9 9 9 9 9 9 10 10 11 12 12 12 13 12 12 11 11 11 11 11 11 11 11 11 10 10 11 12 12
11 11 11 11 11 11 12 12 12 12 11 11 12 11 12 13 13 12 12 11 12 13 13 13 13 13 12 11 11 11 10 10 11 11 11 10 9 9 9 10 11 11 11 11 10 10 10 10 10 9 9 9 9 9 9 8 8 9 9 8 8 8 8 9 9 10 11 12 13 13 13 12 11 11 11 11 11 11 10 10 10 10 11 11 12 12
9 10 11 11 10 10 11 11 11 10 11 11 10 9 10 11 12 12 12 11 11 11 11 11 11 10 8 9 11 11 10 10 10 9 9 10 9 10 10 10 10 10 10 10 10 10 10 10 9 9 8 8 9 9 9 9 9 9 9 8 8 8 8 8 9 9 10 11 12 13 13 13 11 11 11 11 11 10 10 10 10 11 11 11 11 12
9 9 10 10 9 9 9 10 10 9 10 10 9 8 8 9 9 11 10 9 8 8 9 9 9 8 8 9 10 10 9 9 9 9 9 9 9 10 10 10 10 10 10 11 11 11 11 10 9 9 9 9 9 8 9 9 9 9 8 8 8 8 8 8 8 8 9 11 12 13 13 12 11 11 11 11 10 10 10 10 10 11 11 11 12 12
9 9 9 9 9 8 8 9 9 9 10 10 9 8 8 8 9 10 10 9 8 7 8 9 9 8 9 9 8 7 8 8 9 10 10 9 9 9 10 10 11 10 10 11 11 10 10 10 9 9 9 8 8 8 9 9 9 8 8 8 8 8 8 8 8 8 9 11 12 12 11 10 10 10 10 11 10 10 10 10 10 11 11 11 11 11
9 9 9 9 9 8 8 9 9 9 10 10 9 8 8 8 8 8 9 9 8 7 8 9 10 9 9 9 8 7 8 10 11 12 11 10 9 8 9 10 10 10 10 9 9 9 9 9 9 9 8 8 8 8 9 9 9 8 7 7 8 8 8 8 8 8 9 10 10 10 9 9 9 9 10 10 10 10 10 10 10 11 10 10 10 10
8 9 9 9 9 8 8 8 8 8 9 9 9 8 7 7 6 7 8 9 8 8 8 8 9 9 9 9 8 8 9 11 11 12 12 11 10 9 9 10 10 9 9 9 8 9 9 9 9 8 8 7 8 9 9 9 9 8 7 7 7 8 8 8 8 8 8 8 8 8 8 9 9 9 10 10 10 10 10 10 10 10 10 10 10 10
7 7 8 9 8 7 8 8 8 8 8 8 8 8 8 7 6 7 9 9 8 8 8 8 9 9 9 8 8 8 10 10 11 11 11 11 10 10 9 10 10 10 9 9 9 8 9 8 8 8 7 7 8 9 9 9 8 7 7 7 7 7 8 8 8 8 8 8 7 7 8 8 9 9 10 10 10 10 10 10 10 10 9 10 10 10
8 7 7 8 8 7 7 8 7 8 8 7 7 8 8 6 6 8 9 9 8 8 8 8 8 9 8 7 7 8 10 10 10 11 11 9 9 9 8 9 10 10 9 9 9 8 8 8 7 7 7 7 8 8 9 8 7 7 7 7 7 7 7 8 8 8 7 7 7 7 8 8 8 9 9 10 10 10 9 9 9 8 8 9 10 9
7 7 6 7 7 7 7 7 7 7 8 7 7 8 7 6 7 8 8 8 7 8 8 8 8 8 8 7 7 9 10 10 10 10 9 9 8 8 9 8 8 8 8 8 8 7 7 7 7 7 7 7 8 8 8 8 7 6 7 7 7 7 7 8 8 7 7 7 7 7 8 8 9 9 9 10 10 9 9 9 8 8 8 9 9 9
6 6 6 6 6 6 6 6 7 7 7 7 7 8 8 7 8 8 7 7 7 8 8 8 8 8 8 7 8 8 9 9 9 8 8 8 8 8 9 9 8 8 8 7 7 7 6 6 6 6 7 8 8 8 8 7 6 6 6 6 7 7 8 7 7 7 7 7 7 7 8 8 9 9 9 9 9 9 8 8 8 8 9 9 9 9
6 6 6 6 6 5 5 5 5 6 7 7 7 8 8 7 7 7 7 8 8 8 8 8 8 8 8 8 8 8 8 8 8 7 7 8 8 8 9 9 8 8 8 7 7 7 6 6 6 6 6 7 7 7 7 7 6 6 6 6 7 8 7 7 7 7 7 7 7 7 7 8 8 8 8 8 8 8 8 7 7 8 8 8 8 9
7 6 5 5 6 5 5 5 6 7 7 7 7 7 7 7 7 7 7 7 7 7 7 8 8 8 8 7 7 7 7 7 7 7 7 7 8 8 8 8 8 7 7 7 7 7 7 6 7 6 6 6 6 6 6 6 6 6 6 6 8 8 7 6 6 7 7 7 7 7 7 8 8 8 8 8 7 7 6 6 6 7 7 8 8 9
6 6 5 5 6 6 5 6 7 7 7 7 7 7 7 8 8 7 6 6 7 7 7 7 7 7 7 7 7 7 7 7 7 7 7 7 7 7 7 7 7 7 7 7 7 6 6 6 6 6 6 6 6 6 6 6 5 5 6 6 7 7 6 6 6 6 7 7 6 7 8 8 8 8 7 7 6 6 6 6 6 7 8 8 8 8
6 5 5 5 6 6 6 6 6 7 7 7 7 7 7 7 7 7 6 7 7 7 7 7 6 7 7 6 6 6 7 7 7 7 7 7 7 7 7 7 7 7 7 7 7 6 6 6 6 6 6 6 6 5 6 5 5 5 6 6 6 6 6 6 6 6 6 6 6 7 8 7 7 7 7 7 7 7 7 7 7 8 7 7 7 7
6 5 5 5 5 5 5 6 6 6 6 6 6 6 7 6 6 6 6 6 6 6 6 6 6 6 6 6 6 6 6 6 6 6 6 6 6 7 7 7 7 7 7 7 7 6 6 6 6 6 6 6 6 6 6 6 6 6 6 6 6 6 6 6 6 6 6 6 7 7 7 7 7 7 7 7 8 8 8 8 8 7 6 7 8 8
5 4 5 5 5 4 5 6 6 6 6 6 6 6 6 6 6 6 6 6 6 6 6 6 6 6 6 6 6 6 6 6 6 6 6 6 6 6 7 7 7 7 7 7 6 6 6 6 6 6 6 6 6 6 6 6 6 6 6 6 6 6 6 6 6 6 6 7 7 7 7 7 7 7 7 7 8 8 8 7 7 7 7 7 8 8
5 5 5 5 4 5 5 6 6 5 5 6 6 6 6 6 6 6 6 6 6 6 6 6 6 6 6 6 6 5 5 6 6 6 6 6 6 6 7 7 7 6 6 6 6 6 6 6 6 6 6 6 6 6 6 6 6 6 6 6 6 6 6 6 6 6 7 7 7 7 7 7 7 7 7 7 7 7 7 7 7 8 8 8 8 8
4 4 5 4 3 4 4 5 5 4 4 5 6 6 6 6 5 5 5 5 5 6 6 6 6 6 6 6 5 5 5 5 5 6 5 5 6 6 7 7 6 6 6 6 6 6 5 5 5 5 5 6 6 6 6 6 6 6 6 6 6 6 6 6 6 7 7 7 7 7 6 6 6 7 6 6 6 7 6 7 8 8 8 8 8 8
5 5 5 4 4 4 5 5 5 4 4 5 5 5 5 5 5 5 5 5 5 6 6 5 5 5 5 6 6 5 5 5 5 5 5 5 6 6 6 6 6 6 6 6 6 6 6 5 5 5 5 5 5 6 5 5 5 6 6 6 7 7 7 6 6 6 6 6 6 6 6 6 6 7 7 7 7 7 6 6 7 8 8 8 8 7
Height
779 780 784 784 783 782 784 787 787 788 789 789 789 787 787 787 782 780 780 784 786 781 780 784 783 778 775 771 771 774 778 778 778 780 780 779 779 778 778 777 776 776 776 778 781 783 784 786 787 789 790 792 794 796 798 799 801 803 804 806 808 810 813 815 815 816 816 817 818 819 820 821 821 822 822 823 823 824 824 824 824 824 825 825 825 826
781 784 785 781 780 784 787 791 791 791 792 791 790 788 789 790 783 780 782 785 787 782 781 788 784 776 775 772 772 775 775 774 775 777 778 778 777 777 776 775 775 775 776 778 780 782 783 785 786 788 790 791 793 795 796 798 800 802 804 806 808 809 811 813 815 816 816 817 818 819 820 821 822 822 823 823 823 824 824 824 824 824 824 824 825 825
784 784 781 780 786 789 792 795 792 791 792 791 792 789 787 790 787 783 783 785 788 781 778 785 781 773 774 774 774 774 772 770 773 775 774 774 775 775 774 773 774 775 776 777 778 780 782 784 786 787 789 790 792 794 795 798 799 801 803 805 807 809 810 812 815 816 816 817 818 819 820 821 822 822 823 823 823 824 824 824 824 824 824 824 824 825
785 781 781 785 788 786 789 795 792 788 790 791 791 788 787 791 789 783 781 785 789 786 783 784 781 775 774 775 774 776 777 774 774 776 775 775 773 771 771 771 772 773 775 775 776 779 781 783 784 785 787 789 791 793 794 796 798 800 802 804 806 808 809 811 813 815 816 817 818 819 820 821 822 822 823 823 823 824 824 825 825 824 824 824 824 824
780 779 784 787 787 783 785 793 791 785 787 790 789 787 786 787 785 783 784 785 786 789 789 784 780 776 776 775 773 777 781 776 774 774 773 774 774 772 772 771 771 771 771 773 774 776 778 780 781 782 785 787 789 791 792 794 796 798 800 802 805 807 809 810 812 813 815 816 817 819 820 821 822 822 823 823 823 824 824 825 825 825 825 825 825 825
776 782 786 783 784 785 784 788 787 783 785 788 784 780 780 780 781 784 786 784 783 786 791 791 786 782 779 776 774 777 777 772 772 772 771 773 774 775 774 771 770 770 769 769 770 772 774 776 778 781 783 785 787 788 790 792 794 797 799 801 803 806 808 809 810 812 814 815 817 818 819 821 822 822 822 823 823 824 824 825 826 826 826 826 826 826
779 786 786 781 781 784 784 784 783 783 785 785 779 777 780 780 780 783 782 783 785 788 795 797 792 788 782 773 776 782 777 769 768 769 771 774 773 773 773 770 769 768 767 767 767 768 770 772 775 777 779 781 783 785 788 790 793 796 797 799 802 805 807 808 809 810 812 814 816 817 819 820 821 821 822 823 823 824 824 825 825 826 827 827 828 827
780 783 784 782 780 782 781 778 780 782 781 780 779 780 781 779 779 783 782 783 789 791 793 794 791 791 787 777 779 785 777 769 767 767 769 771 772 771 770 769 767 766 765 765 765 765 765 767 769 771 773 776 779 783 786 788 791 794 796 798 801 804 806 807 808 809 811 813 814 816 818 819 820 821 822 822 823 824 824 825 825 826 827 828 828 828
780 777 778 779 779 779 773 770 776 779 776 779 785 786 784 782 782 783 783 786 794 794 789 790 792 794 790 779 778 780 774 770 770 770 770 769 770 771 769 768 767 765 763 762 761 761 761 763 764 767 770 773 777 781 783 786 789 792 795 797 800 802 805 806 807 808 809 811 813 815 817 818 820 820 821 822 823 824 824 825 826 826 827 828 828 829
778 776 775 775 775 773 770 773 777 775 775 782 789 787 785 789 788 787 787 787 795 797 789 789 795 796 790 778 776 779 776 775 776 774 772 770 770 769 768 769 767 765 763 760 759 758 758 761 763 766 770 773 777 780 782 785 788 791 793 795 798 801 803 805 806 807 808 810 811 813 815 817 819 819 820 821 822 823 824 825 826 826 827 828 829 829
776 778 777 774 770 770 772 781 784 779 780 785 784 780 782 787 788 790 792 789 795 799 792 796 801 799 793 784 781 785 783 784 784 779 774 772 771 769 767 767 766 764 762 759 758 757 758 762 765 768 771 773 776 779 782 784 786 789 791 793 796 799 802 804 805 805 806 808 810 812 814 815 817 818 819 821 822 823 824 825 826 826 827 828 829 830
775 776 776 771 768 771 772 779 785 784 785 784 777 776 782 787 788 791 793 794 801 801 796 806 810 801 795 786 782 787 787 787 788 784 780 777 775 773 769 767 765 763 761 758 756 756 757 760 764 767 769 771 774 777 780 782 784 787 790 792 795 797 799 801 803 804 805 806 808 810 812 814 816 817 818 820 821 822 824 825 826 826 827 828 829 830
770 768 773 771 767 769 768 773 783 784 784 781 775 778 786 792 798 800 798 800 802 798 801 813 810 799 791 782 781 788 786 786 787 785 784 782 778 775 772 768 766 763 760 757 755 755 756 758 761 764 766 768 771 773 777 779 782 786 788 790 792 794 796 799 801 802 803 805 806 808 810 812 814 816 817 818 820 822 823 824 825 826 827 828 829 829
771 766 770 769 766 767 766 769 776 779 781 778 774 780 787 796 810 812 809 811 805 796 804 812 806 797 788 782 784 787 786 786 786 785 784 783 781 778 774 770 767 764 761 758 755 754 756 757 759 763 765 768 770 773 776 779 781 784 785 787 789 792 794 796 798 800 802 803 805 806 808 810 812 814 815 817 818 820 822 824 825 825 826 827 828 829
783 777 769 765 767 769 766 764 766 770 777 780 776 776 781 787 799 803 800 800 797 796 805 808 802 793 786 785 786 784 785 786 785 785 785 783 782 779 774 771 768 765 764 760 756 755 758 759 760 763 766 769 771 774 776 779 781 783 784 786 788 791 793 795 797 798 800 802 803 805 806 809 811 812 814 815 817 819 820 822 824 825 826 827 828 829
793 784 769 768 772 770 767 767 766 766 774 785 781 776 779 776 780 797 805 801 798 798 802 802 796 790 786 786 786 785 785 785 785 786 784 782 780 777 774 771 769 768 766 763 759 759 760 760 762 764 766 769 772 774 777 779 782 783 785 787 789 791 793 794 796 797 799 802 803 804 805 807 809 811 812 814 815 817 819 820 822 824 825 826 827 828
790 781 768 770 772 769 769 768 768 767 770 781 781 775 779 776 774 793 812 815 811 801 798 800 794 789 788 785 783 785 785 784 786 785 782 781 778 776 775 774 772 771 769 766 764 763 762 762 763 765 767 769 771 774 777 779 781 783 785 787 788 791 792 793 795 797 799 802 803 804 805 806 807 809 810 812 813 815 817 819 821 822 824 825 826 827
787 779 768 770 768 767 772 769 766 769 768 774 776 771 776 780 778 784 798 811 813 803 798 802 798 790 788 786 783 785 785 784 785 783 781 781 779 778 779 778 777 775 772 770 768 766 765 764 765 766 768 770 772 773 775 777 780 782 784 785 787 789 791 792 794 796 798 799 800 802 803 804 806 806 808 810 812 814 815 817 819 821 823 824 825 826
789 781 772 774 773 769 770 768 767 770 770 770 769 768 774 779 780 784 793 800 804 804 802 801 803 796 784 781 783 783 783 783 784 784 781 781 782 784 783 782 780 778 776 774 771 770 769 768 767 768 770 773 774 774 775 777 779 781 782 784 785 787 789 791 793 794 795 795 797 799 800 801 803 804 806 807 809 811 813 815 817 819 821 823 824 825
789 786 778 774 775 773 768 768 770 770 771 771 769 772 776 777 778 782 786 785 788 801 805 798 798 790 775 776 779 778 780 783 783 783 782 784 786 787 787 786 784 782 780 777 775 774 773 772 770 770 771 775 776 777 777 778 780 781 783 784 785 786 788 790 791 792 793 794 795 797 798 799 799 801 803 805 807 809 810 813 815 816 818 821 822 824
787 789 784 774 773 774 770 771 772 769 770 772 771 775 778 781 784 782 784 785 784 794 803 801 795 780 770 776 775 772 778 781 782 783 782 785 788 788 790 789 787 785 783 781 779 777 777 777 776 774 774 776 778 780 779 779 781 783 784 785 785 786 787 788 789 790 791 792 794 796 796 797 797 798 800 801 803 805 807 809 812 814 816 818 820 822
786 788 787 780 775 772 771 776 779 775 774 773 770 770 772 776 781 780 787 792 787 787 794 797 792 776 771 779 777 773 778 780 782 784 783 787 790 790 791 791 789 788 785 784 782 781 780 779 778 777 776 777 778 780 780 781 782 783 784 785 786 786 787 787 788 789 789 790 792 793 794 795 795 796 797 798 799 801 803 805 808 810 812 814 817 819
788 787 788 784 777 774 776 783 786 783 781 778 775 775 773 772 772 773 781 786 788 791 792 793 792 779 773 781 781 780 783 784 786 787 786 788 791 792 793 792 791 789 787 786 784 783 783 782 781 780 779 779 779 779 781 782 783 783 783 784 785 786 787 787 787 787 788 788 788 789 791 792 792 792 794 794 795 797 799 801 804 806 809 811 813 816
788 788 788 785 778 775 777 783 786 785 781 777 777 782 781 776 774 773 776 779 783 790 790 793 795 781 775 783 786 785 787 787 789 790 788 790 792 793 794 793 792 790 788 787 785 784 784 783 783 783 782 782 781 780 782 783 784 783 783 784 785 786 786 786 786 786 786 787 787 787 789 789 789 789 790 791 792 793 795 798 800 803 805 808 810 812
787 787 789 790 788 784 781 781 781 779 778 777 780 786 786 782 780 780 780 781 782 784 784 787 787 777 776 785 787 785 786 785 787 790 789 790 791 792 794 794 793 792 790 788 787 786 785 784 784 784 784 784 784 783 783 784 785 785 783 784 784 784 785 785 785 785 785 785 785 786 787 787 787 787 787 788 789 791 793 795 797 799 802 804 806 808
787 789 789 790 794 795 790 785 781 779 781 782 782 785 786 785 782 778 779 781 783 786 785 781 777 774 777 783 783 783 786 784 786 791 790 791 792 793 794 795 794 793 791 790 789 788 787 787 786 786 786 785 785 785 785 785 785 785 784 784 783 784 786 786 786 784 783 784 784 785 785 785 785 785 785 785 786 789 791 792 794 797 798 800 802 804
790 792 790 787 788 788 784 782 787 790 786 783 782 781 783 787 786 780 780 781 781 785 786 781 778 777 776 778 780 782 784 782 784 788 789 790 792 793 794 795 794 794 793 792 791 790 790 789 788 788 787 786 785 785 785 785 785 785 786 786 785 786 786 786 785 783 782 782 783 783 783 783 784 784 784 784 785 787 789 790 791 794 796 797 798 800
790 790 792 791 787 786 784 784 793 796 789 784 784 781 781 786 787 782 779 779 780 784 783 779 781 781 775 774 775 779 782 783 783 784 786 788 790 792 794 795 794 794 793 793 793 792 792 791 790 790 789 789 788 787 786 786 785 785 786 786 785 784 784 784 783 782 782 782 782 782 781 782 782 782 782 783 784 785 786 787 788 790 792 793 794 796
790 789 793 795 789 788 790 790 793 795 791 788 787 784 781 783 786 783 777 778 781 779 775 775 777 777 774 771 769 772 776 778 779 782 785 788 790 792 793 794 793 793 793 793 793 793 793 792 792 792 791 791 790 788 788 787 787 787 786 785 784 783 783 782 782 782 782 782 782 781 781 781 781 780 781 781 782 782 783 785 786 787 788 788 789 792
790 787 793 796 791 787 788 789 791 792 790 787 785 783 782 782 784 783 779 780 780 777 775 777 775 772 771 768 767 771 777 778 780 784 786 787 789 791 792 792 792 792 792 792 792 792 792 792 792 791 791 790 789 788 788 787 787 787 786 785 784 783 783 782 782 782 782 782 782 781 780 779 779 778 779 779 779 780 781 782 784 785 786 785 786 789
790 791 796 797 792 788 785 786 789 789 788 785 780 781 786 787 788 787 786 786 785 781 780 782 781 776 772 770 772 779 783 783 783 785 785 786 788 790 791 791 791 791 791 791 791 791 791 790 790 790 789 789 788 788 787 787 787 786 786 785 784 783 782 782 781 781 780 780 780 779 779 778 777 777 777 777 778 779 779 780 781 783 785 786 789 791
791 795 798 796 794 789 784 783 783 784 787 785 780 782 785 785 784 785 785 785 783 778 778 782 782 776 770 772 777 781 783 782 782 783 785 787 790 790 790 789 789 790 790 790 790 790 790 789 789 789 788 788 787 787 786 786 786 785 785 784 783 782 782 781 781 780 779 779 778 777 777 776 775 775 775 776 777 777 778 779 779 781 783 785 789 792
795 796 795 796 797 791 786 786 785 787 787 781 778 781 779 774 775 777 780 781 778 774 774 776 773 770 773 777 776 777 781 782 782 784 785 787 789 790 790 789 788 788 789 788 789 788 788 788 788 787 787 787 786 786 785 785 784 783 782 782 781 781 780 780 779 779 778 777 776 776 775 775 774 773 773 775 775 776 776 777 778 779 780 782 784 787
801 797 795 797 797 794 792 791 793 795 790 779 781 787 783 778 776 775 776 781 781 779 778 777 777 780 785 783 775 775 781 783 784 787 787 787 788 788 788 788 788 788 787 787 787 786 786 786 786 786 786 785 785 785 784 784 783 782 782 781 780 779 778 777 777 776 776 775 775 775 774 773 773 772 772 773 773 774 775 776 777 778 778 779 781 782
801 800 800 800 801 801 800 799 801 799 786 779 786 792 789 787 785 780 782 787 789 788 785 782 784 787 786 783 780 781 784 785 787 787 787 787 787 786 786 786 787 786 785 784 784 784 784 785 785 785 785 784 784 783 783 782 782 782 781 781 780 779 778 776 775 775 774 774 773 773 772 771 771 771 771 772 772 772 774 774 776 777 777 778 778 779
800 802 804 803 803 806 805 802 801 794 782 778 786 789 788 789 788 783 784 789 792 792 788 784 784 785 785 784 786 787 787 786 784 783 785 786 786 786 785 784 784 785 784 784 783 783 783 783 784 784 783 783 783 782 781 781 781 780 780 779 779 778 777 776 774 774 773 772 771 771 770 770 769 769 770 771 771 771 772 773 774 775 776 777 777 779
800 800 801 801 801 805 806 800 794 789 784 781 786 791 792 793 792 790 788 789 792 793 791 787 783 784 784 783 786 788 786 783 780 779 782 784 785 786 786 784 785 785 784 784 783 783 783 783 783 782 782 782 781 780 780 779 779 779 778 778 777 776 775 774 773 773 772 770 769 769 769 769 768 768 768 769 769 769 769 771 772 773 774 775 776 778
802 800 799 798 800 804 806 802 797 796 792 788 790 794 794 795 797 797 792 789 791 792 791 788 785 784 784 784 786 787 783 780 778 778 780 782 783 785 785 784 784 784 783 783 783 782 782 781 781 781 781 780 779 778 778 777 777 776 776 775 775 773 773 772 771 770 769 768 768 767 767 767 766 766 766 766 766 767 767 768 769 770 772 773 774 776
805 805 802 800 802 805 804 801 801 799 794 793 795 793 792 795 798 796 789 786 790 792 792 790 787 786 786 787 788 786 783 782 780 777 779 782 783 783 783 783 783 783 782 782 782 781 781 780 779 779 778 778 777 776 776 775 774 774 773 773 772 771 770 769 768 768 767 766 766 765 765 764 764 763 763 763 763 764 764 765 766 768 770 772 773 776
802 806 806 802 802 805 805 803 802 798 794 796 796 791 791 796 796 792 788 787 791 792 791 790 789 787 788 791 791 787 785 784 782 779 780 783 784 784 784 783 782 782 782 781 781 780 780 779 778 777 776 775 774 774 773 773 772 771 770 770 769 768 767 766 765 765 764 764 763 762 762 762 761 760 760 760 760 761 762 763 765 767 769 771 773 776
807 809 810 808 806 808 809 806 801 796 794 796 795 792 793 794 792 790 789 791 794 793 790 791 791 788 789 791 790 787 785 784 784 783 783 783 784 783 783 783 782 782 781 780 780 779 779 777 776 775 774 773 772 771 771 770 769 768 767 766 766 765 764 763 762 762 761 761 760 759 759 759 758 757 757 757 757 758 760 761 762 765 767 770 773 775
814 814 813 812 811 811 811 808 804 799 796 796 795 792 791 793 794 793 793 794 794 792 790 791 791 789 790 790 789 787 785 785 785 785 784 784 783 782 781 781 780 780 779 778 778 777 777 775 774 773 771 769 768 768 767 766 765 764 764 763 762 761 760 760 760 759 758 758 757 756 756 755 755 755 754 754 754 755 757 760 761 763 766 768 772 775
811 814 813 812 812 814 816 815 812 805 798 796 796 794 792 795 797 796 794 793 792 792 791 791 790 790 790 789 788 787 786 786 785 785 784 783 781 780 778 777 777 777 776 775 775 774 774 772 771 769 767 766 765 764 764 763 762 760 760 758 757 757 756 756 756 756 755 755 754 753 753 752 752 752 751 752 752 754 756 759 761 764 766 769 772 776
809 812 815 813 811 813 815 813 807 800 796 797 799 798 796 796 796 795 795 794 792 791 791 790 789 789 789 788 787 786 786 785 784 783 782 781 779 778 776 774 773 772 772 771 771 770 770 769 767 765 763 762 762 761 760 759 758 757 756 754 753 753 752 752 753 753 752 752 751 750 750 750 750 750 749 750 752 754 757 759 762 765 768 771 773 777
810 810 813 813 810 809 808 803 798 795 796 798 799 798 796 795 795 795 796 795 793 791 791 790 789 788 788 788 787 785 783 782 781 780 780 778 776 775 774 772 771 769 767 767 766 766 766 764 762 761 759 758 757 757 756 755 754 752 751 750 750 749 749 749 749 749 748 748 748 747 747 747 748 748 748 750 752 754 758 761 764 767 770 772 775 779
811 812 814 812 809 807 803 800 799 799 797 796 798 798 797 796 795 795 795 794 792 791 790 790 789 788 787 787 786 784 782 780 779 778 776 775 773 772 770 769 767 766 764 763 762 762 761 759 757 755 754 752 752 751 750 749 748 746 745 745 745 745 745 745 745 744 744 744 745 745 745 745 746 747 748 750 752 754 758 761 766 770 773 775 777 781
811 814 814 811 810 811 806 800 799 799 797 797 797 795 794 794 794 794 794 793 791 791 790 789 787 786 785 785 783 781 779 778 777 775 773 772 770 768 766 764 763 762 760 758 757 757 756 754 751 749 747 746 745 745 744 743 742 740 739 739 740 741 741 741 740 740 741 741 742 742 742 743 744 746 748 751 753 755 759 762 767 772 776 777 778 781
813 815 814 810 810 811 807 800 798 798 797 796 796 794 793 793 793 792 792 791 790 789 788 786 785 783 782 781 780 778 776 775 774 772 770 768 766 764 762 759 757 756 755 753 752 752 750 749 746 744 742 740 739 739 739 737 735 734 734 734 734 735 736 736 736 736 737 738 739 739 739 740 742 744 748 751 752 755 760 763 767 772 777 778 779 781
813 814 811 810 809 807 803 800 799 798 796 794 794 793 792 792 791 790 790 789 788 787 785 783 782 781 779 778 777 775 773 771 769 768 766 764 762 760 757 754 752 751 750 748 747 747 746 744 742 740 737 735 734 734 733 730 729 728 728 728 729 730 730 730 731 733 734 734 735 736 737 738 740 743 747 750 753 757 762 765 768 772 776 779 780 781
814 812 808 810 812 809 803 800 799 800 798 794 791 790 790 790 790 788 787 786 784 783 782 780 778 777 775 774 774 773 771 768 766 764 762 760 758 756 753 751 749 747 745 745 744 742 741 740 738 736 734 731 730 729 727 725 724 723 723 723 724 724 725 726 727 729 730 731 732 734 735 738 740 743 747 750 754 758 762 766 769 772 775 778 780 781
811 808 806 808 809 805 800 798 799 800 798 793 790 788 786 786 786 785 784 782 780 778 777 777 776 774 772 770 770 769 768 765 762 761 759 756 754 752 750 748 746 743 742 741 740 738 737 735 734 732 730 727 725 724 722 720 719 718 718 718 718 719 720 721 723 725 726 727 729 731 733 737 741 744 748 752 755 758 762 766 770 773 775 778 779 781
Wind_Speed
1 1 0 1 2 2 1 1 2 3 3 2 2 2 1 1 1 1 1 2 2 1 1 1 2 3 4 5 3 1 2 4 6 5 6 6 7 7 9 10 10 10 7 2 3 7 12 16 19 19 19 21 21 22 25 26 25 24 23 22 22 22 19 17 15 14 13 13 13 11 10 9 9 8 7 6 5 5 6 6 5 5 5 6 7 7
0 0 1 3 3 1 1 3 4 4 3 2 2 2 1 2 2 0 0 2 2 2 1 1 2 3 3 4 3 1 1 5 7 8 8 9 9 7 9 11 11 8 4 4 5 6 11 16 19 19 19 21 22 24 27 27 27 25 24 23 24 24 22 19 16 14 13 13 12 11 10 9 9 8 7 6 5 5 6 7 7 6 6 6 8 9
0 1 3 3 3 3 4 4 4 3 3 2 2 2 2 2 2 2 1 2 2 1 1 1 2 3 2 4 4 2 3 3 3 6 7 9 10 9 10 11 9 7 6 7 7 7 11 15 18 19 20 22 23 26 28 28 27 26 25 24 25 25 23 20 16 14 12 11 10 9 8 9 9 8 7 6 6 8 8 8 8 7 8 10 11 11
0 1 2 2 5 5 4 3 4 4 2 2 2 2 1 1 1 1 1 1 2 1 1 1 2 3 2 1 1 2 3 3 2 2 4 6 9 9 10 9 9 10 10 10 9 7 9 13 17 20 21 23 23 25 28 29 28 27 26 26 26 26 24 21 18 15 13 12 10 8 8 8 8 8 7 7 8 8 8 8 8 8 10 12 12 11
3 1 4 4 4 3 3 3 4 3 2 1 3 3 2 1 2 2 1 2 1 1 2 2 3 2 1 1 2 1 3 3 2 2 2 4 6 6 6 7 9 11 10 11 11 9 10 13 16 19 21 23 24 27 30 32 31 29 28 27 27 27 25 22 20 17 15 14 13 10 9 8 7 8 8 7 7 7 7 7 7 9 10 10 10 10
2 1 4 4 2 2 3 3 4 4 2 2 4 7 5 3 3 2 1 1 1 0 3 4 4 1 2 1 1 1 3 2 1 2 2 2 3 4 6 8 9 10 10 11 12 11 12 13 14 16 20 23 25 29 33 34 32 30 29 28 28 27 26 24 21 19 17 17 15 13 13 11 9 9 8 7 7 7 7 6 7 9 9 9 9 9
1 1 2 3 3 3 3 2 4 5 3 1 3 6 6 4 3 3 2 1 1 2 2 2 4 3 1 1 1 2 5 4 2 1 2 1 1 4 6 8 8 10 10 10 11 12 13 14 15 17 22 25 27 31 33 33 32 31 30 29 29 28 27 26 23 21 19 19 17 15 14 13 12 11 9 7 7 7 7 7 8 9 10 9 10 10
2 2 2 2 3 3 2 1 3 6 4 1 1 5 7 5 4 4 2 1 1 1 0 1 1 3 4 1 1 2 4 3 3 4 5 2 2 4 6 7 8 10 10 10 11 13 13 16 19 21 24 28 30 32 32 33 33 32 30 29 29 29 29 27 25 23 22 20 19 16 15 14 13 11 8 8 8 7 7 7 7 9 10 10 10 10
2 3 2 2 1 1 2 1 5 8 3 1 2 4 5 4 3 3 2 2 1 2 2 1 1 3 3 1 1 1 2 2 4 7 9 7 5 5 6 7 9 11 11 12 13 13 14 17 21 22 23 25 29 31 32 34 33 32 30 29 30 30 30 29 27 25 24 21 19 17 16 15 14 11 9 8 9 9 8 8 7 8 10 9 9 9
2 3 2 3 2 2 2 0 5 7 2 1 5 5 5 5 5 3 2 2 2 2 4 1 1 3 3 1 1 2 2 3 6 7 8 8 9 9 8 7 9 10 11 12 13 13 14 15 16 16 16 19 26 30 30 31 32 31 31 30 31 31 31 30 29 27 25 23 21 19 17 17 16 14 12 10 11 11 10 9 8 8 9 9 8 8
2 2 1 2 2 1 3 3 1 2 3 4 5 5 5 4 3 2 2 2 1 3 4 1 1 2 4 1 1 1 2 4 6 6 7 9 11 12 11 10 10 9 10 9 10 12 11 9 10 12 14 18 24 25 26 29 30 31 31 30 31 32 32 32 31 29 27 25 23 21 18 18 18 17 15 13 12 13 12 11 10 9 9 9 9 9
2 1 2 2 1 2 4 4 2 2 4 4 2 3 3 1 1 1 1 1 3 4 1 2 1 3 4 1 2 1 4 4 5 6 8 10 11 12 11 11 11 9 9 8 8 8 8 8 11 15 16 19 23 25 26 29 30 30 30 30 30 32 34 33 33 32 30 27 25 23 20 19 19 19 18 16 15 14 13 13 12 11 10 10 10 10
3 2 1 3 1 3 2 3 3 2 2 2 2 3 3 1 1 1 1 1 4 3 1 2 1 3 4 3 1 2 4 4 4 5 8 10 11 12 12 12 10 9 8 6 5 5 7 9 11 14 16 19 24 25 28 30 29 29 31 31 31 33 35 35 34 34 32 29 27 25 22 20 20 20 20 19 18 16 14 13 14 14 13 13 12 12
3 1 1 1 1 1 3 4 2 2 4 5 3 3 4 2 1 2 2 1 3 2 2 1 1 2 2 1 1 2 3 4 5 5 7 8 10 10 10 10 9 9 8 4 2 3 5 7 9 12 13 15 17 20 24 27 29 32 34 33 33 34 36 36 35 35 34 31 28 26 24 21 21 21 22 21 20 18 17 15 14 14 14 14 14 13
3 2 0 1 0 1 3 4 1 2 3 2 1 2 3 3 2 3 3 3 4 0 2 0 2 2 1 1 2 2 3 4 4 5 6 6 6 7 7 7 9 9 8 5 3 3 2 3 7 9 10 10 11 14 18 23 28 31 30 30 32 32 34 35 35 35 35 33 30 27 25 23 22 22 22 23 23 21 19 17 16 15 14 13 13 13
2 3 3 2 1 1 2 1 2 3 3 1 1 1 2 3 3 1 1 1 1 0 1 2 2 1 1 2 2 1 2 3 3 4 4 5 6 5 5 8 10 10 9 8 6 5 4 3 5 7 9 10 10 12 14 19 26 27 24 25 27 27 29 31 31 31 31 31 31 29 27 25 24 23 24 25 25 24 22 19 17 16 14 12 12 13
1 3 2 2 1 1 1 1 1 1 2 2 2 3 1 0 3 3 0 2 1 3 2 1 2 1 1 2 2 1 2 1 2 4 4 7 8 7 8 9 9 10 10 10 9 7 5 5 5 6 9 10 11 12 14 18 24 25 23 23 22 23 26 26 25 25 27 29 30 29 28 27 26 25 25 26 26 26 24 22 20 17 15 14 13 13
2 3 2 1 2 1 1 1 2 2 0 2 3 4 3 1 2 2 1 2 1 4 2 1 2 3 3 3 4 4 3 1 2 4 5 7 9 9 9 9 9 10 9 10 11 9 8 8 7 6 6 8 11 14 17 20 24 25 26 24 20 21 23 21 20 24 28 31 31 30 29 28 28 27 26 26 27 27 25 23 22 19 17 15 13 13
2 4 2 0 2 2 2 1 2 3 2 1 1 3 2 2 2 2 1 2 2 3 1 2 2 3 5 3 5 8 6 2 1 3 5 7 8 8 8 9 10 10 9 9 10 10 9 9 10 10 8 5 5 11 15 19 22 24 26 25 23 22 22 21 23 26 29 31 30 31 32 31 29 29 28 27 27 28 27 25 23 22 20 17 15 14
0 2 2 1 1 3 2 1 2 2 3 2 2 2 0 2 2 2 1 1 3 3 1 2 2 3 4 4 7 10 7 4 2 2 4 5 6 5 6 7 8 8 8 8 9 10 10 12 13 16 17 13 7 5 8 12 14 16 20 22 22 23 22 23 25 26 28 28 28 30 32 32 32 30 29 29 29 29 29 27 25 24 22 20 17 16
1 1 3 1 1 3 1 0 2 1 2 2 3 3 2 1 0 1 1 1 1 3 2 3 4 3 2 2 7 10 8 5 4 3 3 3 4 3 4 5 5 6 7 8 9 9 10 12 14 17 22 23 18 14 10 6 5 6 10 13 15 19 20 23 25 26 27 27 27 29 30 31 31 30 30 31 31 32 31 29 27 26 24 22 20 18
0 1 2 2 3 3 1 1 1 1 0 1 2 3 3 3 2 3 3 1 0 2 2 2 3 2 2 1 4 5 5 4 3 2 2 3 2 2 3 4 5 5 6 7 8 8 8 10 12 14 18 22 23 21 18 16 12 7 2 2 6 10 14 17 21 24 26 28 29 31 32 32 31 30 30 32 33 34 34 32 30 28 26 24 22 21
0 1 1 3 4 4 2 2 2 2 1 1 0 0 1 2 2 5 5 3 2 1 1 1 2 1 2 1 2 1 0 1 1 1 1 3 2 1 3 4 4 5 6 7 7 7 8 9 11 13 15 18 22 23 23 21 19 19 16 11 6 3 7 11 14 17 21 26 30 32 34 35 35 33 31 32 34 35 36 35 33 30 28 26 24 23
1 1 1 3 3 3 1 1 1 1 2 1 0 1 0 1 0 2 2 1 3 3 3 2 3 2 2 1 1 1 1 2 2 1 2 3 2 1 2 4 4 5 6 7 7 7 8 9 10 11 12 14 16 20 21 20 20 22 22 20 17 14 9 6 10 13 16 21 26 30 32 35 38 37 34 33 34 35 36 36 34 32 30 28 26 24
1 1 1 2 3 3 2 1 2 1 1 1 0 1 1 0 2 1 1 1 3 3 4 4 5 2 3 2 2 1 1 3 3 2 3 3 3 2 2 3 3 4 5 6 7 7 8 9 10 10 11 11 11 13 15 17 18 20 21 22 21 21 19 14 7 9 13 15 20 25 29 33 36 37 36 35 36 36 36 36 35 34 33 30 28 26
2 1 1 3 5 5 5 3 1 0 0 1 0 0 1 1 2 2 1 2 3 2 3 5 4 0 3 2 2 2 1 3 3 3 3 3 2 2 1 2 3 3 5 6 7 7 7 7 8 9 10 10 10 10 11 13 16 19 20 21 21 20 20 20 15 8 7 10 14 19 24 30 34 36 37 37 37 36 36 35 35 34 34 32 30 28
1 1 2 4 6 6 5 3 0 1 2 3 2 2 1 1 1 1 1 3 3 2 3 3 2 2 4 6 5 3 3 4 4 5 5 4 3 2 1 1 2 2 3 4 5 5 6 6 8 9 10 10 11 12 12 12 14 16 17 16 17 18 19 20 19 16 11 7 10 14 19 25 31 34 36 36 35 34 35 35 34 34 34 33 32 30
1 1 1 3 5 5 4 3 1 1 4 5 4 4 3 2 2 3 4 3 3 2 5 3 3 4 4 6 7 5 5 5 6 7 6 4 3 2 1 1 0 1 1 2 3 4 5 5 5 7 8 8 9 10 12 13 15 17 17 16 17 19 20 21 21 20 17 13 10 12 16 20 25 30 33 34 34 33 33 35 35 35 35 35 33 32
1 2 2 2 4 3 3 4 2 2 4 4 5 6 6 4 5 6 6 4 6 6 7 4 7 8 4 5 8 7 8 9 8 6 4 3 3 3 3 3 1 1 0 1 2 2 2 3 3 4 4 5 6 7 9 10 12 15 16 18 20 22 22 22 22 21 19 16 12 12 14 16 21 26 30 31 32 32 32 34 35 36 37 38 35 33
1 2 2 3 3 4 4 5 3 4 4 5 7 9 7 6 7 7 6 3 6 9 4 3 8 9 5 5 5 3 4 5 4 3 2 2 3 4 4 4 2 1 1 1 2 2 2 3 3 3 4 5 6 8 9 9 11 13 14 15 19 21 21 22 22 22 21 18 15 13 13 13 17 22 25 27 29 30 31 32 33 34 34 33 32 33
1 1 2 2 3 5 5 5 5 6 7 9 10 7 5 5 6 7 6 3 4 6 4 4 8 8 5 4 3 1 2 2 3 3 3 2 2 3 4 4 3 2 1 1 2 3 3 3 4 4 5 6 7 8 9 9 10 12 12 14 17 19 20 22 22 22 22 21 20 18 15 13 14 16 19 23 25 26 27 27 28 29 26 23 26 30
1 1 1 1 5 5 4 7 8 6 7 12 11 6 6 8 6 4 4 4 6 7 6 6 8 7 4 4 3 2 3 4 4 3 2 1 1 3 4 3 2 1 1 2 2 3 3 4 5 5 7 7 8 9 9 10 11 11 11 13 16 18 20 21 21 22 22 22 23 21 18 15 13 14 16 17 18 21 23 23 25 25 24 24 27 29
1 2 1 1 4 4 3 4 4 4 7 10 6 5 9 11 8 6 4 5 7 8 6 5 5 3 2 2 5 6 5 4 2 1 1 1 2 3 4 4 3 2 2 2 3 4 5 5 6 6 8 9 10 10 11 12 13 15 16 17 19 20 21 21 20 21 22 22 23 23 21 18 14 14 13 13 15 18 20 22 24 26 27 31 34 32
1 2 2 2 3 3 1 1 1 4 7 5 1 0 5 7 7 8 4 1 3 5 3 3 2 3 2 2 4 4 5 3 2 1 1 1 2 4 5 5 5 4 4 3 2 3 4 5 6 8 11 12 13 14 14 14 15 17 19 20 21 21 22 21 20 20 22 23 22 22 22 20 16 14 12 11 15 18 18 20 24 28 32 35 36 33
2 3 2 1 2 2 1 1 3 6 5 1 2 2 3 3 5 5 0 5 4 3 3 3 2 2 0 1 2 4 4 2 1 2 3 3 4 5 6 6 6 5 4 3 4 4 6 7 8 10 12 13 15 16 16 15 16 17 18 18 19 21 22 22 20 19 21 23 23 22 22 20 16 14 12 11 15 17 18 21 25 30 34 36 36 35
3 3 2 1 2 1 0 3 5 3 4 3 1 2 1 1 2 1 2 5 7 5 3 1 2 1 1 3 3 3 1 2 2 1 2 3 5 5 6 5 5 5 4 5 5 6 8 10 12 13 14 16 17 17 16 16 16 17 17 17 18 20 20 19 17 17 20 24 24 22 21 18 14 12 11 12 15 18 21 24 28 32 35 35 36 35
3 3 2 2 3 2 2 4 3 4 6 4 1 3 2 1 3 1 1 4 6 5 3 3 3 3 2 3 4 2 1 1 1 3 4 2 3 5 6 6 6 6 6 6 7 10 13 15 16 17 17 18 18 17 16 17 18 18 16 15 17 18 17 16 15 15 19 23 23 20 18 16 13 11 11 12 16 20 23 26 30 33 35 36 35 34
2 1 1 3 2 1 2 4 3 4 4 1 1 2 2 1 2 3 2 2 4 4 4 5 6 6 5 4 4 2 1 1 2 1 4 4 2 0 3 5 6 6 8 9 11 14 16 18 18 18 17 18 19 19 18 19 20 18 15 15 17 18 16 14 14 16 17 19 18 17 16 14 13 12 12 14 18 22 26 29 32 35 37 38 36 34
3 1 0 2 2 1 3 4 3 3 2 0 1 4 4 1 3 3 3 2 2 5 5 5 6 6 5 4 3 1 1 1 2 2 4 6 5 4 4 6 8 9 11 12 13 15 17 19 20 19 19 20 21 20 20 21 21 19 15 16 18 18 17 17 18 17 15 15 16 16 16 15 13 12 13 15 18 23 28 30 32 35 36 36 35 32
2 1 0 3 3 2 3 4 3 3 1 0 2 5 5 0 4 4 5 2 2 5 6 4 6 6 3 1 0 1 1 2 3 5 6 5 4 5 6 8 10 12 13 13 14 16 19 20 20 19 19 20 22 22 22 23 22 19 17 19 18 16 18 22 22 18 16 16 17 16 16 15 13 13 14 15 18 23 29 31 33 33 33 33 32 28
1 1 1 2 2 2 3 3 3 2 1 0 2 5 4 1 4 4 4 1 3 7 6 4 6 6 2 1 1 1 2 3 5 7 8 7 7 7 8 10 11 13 15 15 17 18 17 17 18 19 20 22 24 24 24 24 22 19 20 20 17 18 24 27 23 19 17 17 16 16 16 15 14 14 14 16 20 24 27 31 34 35 33 32 30 28
0 1 1 1 1 1 2 2 4 3 0 1 2 4 2 1 3 3 3 2 3 6 6 4 5 4 2 2 3 3 5 6 6 7 8 9 9 9 10 11 11 12 15 17 18 18 17 16 17 20 22 24 24 23 24 25 22 20 20 19 19 25 30 26 21 19 18 17 17 17 16 15 14 13 14 17 22 25 27 31 33 35 34 32 30 28
0 1 1 2 1 1 2 2 3 2 0 2 4 4 2 1 3 5 5 5 4 5 6 4 4 3 2 3 3 4 6 7 7 7 8 9 10 11 13 13 12 13 14 15 16 17 17 16 17 20 22 24 24 24 25 24 21 20 19 20 25 31 30 24 20 20 18 18 18 17 16 15 13 12 14 18 23 26 28 29 30 32 32 30 28 26
1 1 2 1 1 1 2 3 1 0 2 3 5 5 1 1 4 6 6 6 5 5 5 3 3 3 3 4 6 6 6 7 7 8 8 10 11 12 13 14 14 15 15 15 16 17 17 18 19 20 21 22 23 25 25 24 22 20 20 23 30 33 28 22 20 19 18 18 17 16 15 13 11 14 17 18 21 23 23 24 28 29 28 26 26 23
1 1 2 3 2 3 5 4 4 5 3 3 4 4 4 7 8 6 4 5 5 5 3 3 6 7 6 6 8 8 8 8 9 9 10 11 11 12 13 14 16 17 17 17 17 17 18 20 20 20 20 20 22 25 26 25 23 21 22 28 32 30 25 20 19 19 18 16 15 15 13 11 13 18 19 20 24 26 24 23 25 26 24 24 24 23
2 1 1 3 3 4 6 5 5 7 7 6 4 4 6 8 8 5 4 5 6 6 5 5 7 8 8 8 8 8 9 10 11 11 11 11 12 12 13 14 16 18 19 19 19 18 19 20 20 20 20 21 22 24 25 25 24 24 26 28 28 26 23 20 19 20 18 15 14 14 12 14 18 21 23 25 28 29 28 26 26 25 23 23 23 23
2 1 2 5 4 4 5 4 4 7 9 9 9 8 7 6 5 5 6 6 6 7 8 8 9 9 8 8 8 10 10 10 11 12 11 11 12 13 14 15 17 18 19 20 20 19 19 19 19 19 20 21 22 21 22 24 25 25 26 26 24 23 22 20 20 20 16 14 14 13 14 21 25 27 29 31 32 31 30 29 28 26 24 24 23 22
1 1 2 6 6 6 8 9 10 11 11 9 8 8 6 7 8 8 8 7 8 10 10 10 10 9 8 8 9 11 12 11 12 12 11 11 12 12 13 17 19 20 20 21 21 20 18 19 20 20 21 22 22 20 21 24 26 25 25 25 24 22 21 21 21 19 15 13 13 14 20 27 30 30 30 31 32 31 29 28 27 26 25 24 23 23
1 2 5 6 7 8 10 10 10 10 10 8 8 9 8 8 10 11 10 10 12 13 12 12 12 10 9 10 10 11 13 13 13 13 14 13 12 13 15 19 21 22 21 21 20 19 19 21 23 24 26 27 25 23 24 26 27 26 25 24 23 21 21 22 21 19 16 14 14 18 24 29 31 30 29 30 32 31 30 29 28 27 26 24 22 21
2 6 7 6 7 8 8 8 8 9 9 9 10 13 12 10 11 13 13 14 14 14 13 13 14 13 12 12 11 11 13 14 14 15 14 13 14 17 20 22 24 25 25 24 22 22 24 26 27 28 30 30 29 28 28 27 27 25 24 23 22 21 21 22 20 18 17 15 17 23 26 26 27 28 28 29 32 32 29 26 25 25 24 23 21 18
4 7 6 6 8 9 10 10 10 9 10 11 12 15 15 13 12 13 14 15 16 16 14 12 13 14 14 14 13 13 14 15 17 17 16 16 19 22 23 24 24 26 26 26 25 27 29 30 30 31 32 32 31 29 27 26 25 24 23 22 21 21 21 21 20 19 18 17 22 28 29 27 27 29 30 31 32 31 27 22 22 23 23 23 21 17
Wind_Direction
343 114 132 227 246 273 221 184 107 121 124 104 121 150 141 205 240 266 255 35 352 256 125 86 289 289 286 287 273 3 65 177 188 193 202 206 209 208 212 218 221 227 228 194 194 204 199 200 202 200 198 196 193 191 187 186 189 188 185 182 180 181 182 184 181 171 163 160 159 159 157 154 153 154 147 135 123 109 109 109 107 102 88 79 77 72
356 100 232 231 229 241 155 146 120 112 113 114 159 172 168 222 240 338 317 10 355 250 157 117 275 266 268 290 287 310 213 194 190 195 200 202 208 214 216 221 224 224 218 205 205 189 189 196 199 200 198 195 192 190 189 189 191 190 188 186 184 183 183 185 184 174 168 164 162 162 160 157 157 156 149 140 130 119 116 107 97 87 71 75 83 80
40 254 257 231 171 105 88 126 134 119 124 129 159 196 197 212 274 287 232 345 354 265 175 134 284 285 274 284 283 269 235 218 194 205 213 203 202 211 215 221 226 223 218 214 207 186 185 190 195 199 199 198 195 192 190 190 191 190 188 188 188 187 184 183 183 180 177 169 167 169 165 161 159 157 152 139 123 117 110 96 82 66 63 75 83 83
291 200 189 149 147 129 92 122 137 119 133 158 165 211 218 133 278 245 178 342 8 25 354 245 277 293 297 272 253 285 283 298 322 243 233 220 213 214 216 222 222 218 216 213 207 191 182 185 193 198 199 197 195 194 191 191 192 191 190 191 191 189 185 181 181 184 184 174 172 173 166 166 163 157 150 133 120 115 108 93 77 70 77 80 81 82
252 154 125 122 147 150 122 143 164 160 171 200 196 216 222 181 224 249 320 320 339 99 36 317 268 264 11 42 141 69 310 290 320 314 253 232 233 237 245 244 230 223 218 210 205 193 186 192 195 195 197 195 193 196 194 192 194 192 192 193 192 190 187 182 181 186 186 177 175 172 165 166 163 158 157 148 136 126 117 100 83 85 93 88 83 82
280 150 143 138 137 153 152 176 199 190 185 217 217 214 207 186 194 214 298 309 253 117 45 359 284 239 50 327 171 32 328 280 238 265 248 233 242 242 245 243 236 235 228 216 209 198 193 195 191 190 194 195 195 198 196 195 195 194 194 194 192 191 189 185 183 185 184 179 177 174 171 173 172 172 175 166 148 135 126 108 89 95 101 94 87 86
10 86 149 143 130 149 175 215 211 188 173 209 215 191 176 157 153 162 185 220 324 328 39 3 286 275 317 301 92 348 310 296 269 280 67 71 241 230 237 240 236 235 231 224 216 205 197 192 188 190 194 195 197 199 197 195 195 194 194 194 193 192 191 188 185 183 182 181 182 183 182 185 186 184 180 165 147 135 129 115 94 95 101 97 92 92
148 121 75 87 112 143 203 257 196 180 170 177 160 150 152 153 159 159 160 161 358 310 310 42 323 277 281 292 42 290 282 301 335 354 10 7 267 251 250 251 251 245 234 225 221 212 203 193 190 192 196 197 197 197 196 195 195 194 194 194 194 194 193 191 187 183 182 183 184 188 193 198 199 194 183 169 162 150 140 127 105 99 104 101 95 92
164 186 179 161 146 215 242 232 168 178 187 358 110 126 136 133 133 137 130 117 69 283 250 107 79 267 268 268 356 335 311 337 355 343 333 331 321 290 270 266 267 266 254 237 228 219 208 200 196 195 194 194 195 196 196 196 195 194 194 195 195 194 194 194 191 185 183 186 187 190 198 207 210 208 198 182 175 169 157 147 128 114 113 110 101 93
216 237 204 172 207 242 243 93 171 179 181 123 133 106 86 79 73 80 101 111 94 274 260 237 73 271 271 259 340 13 22 335 333 328 319 325 327 318 311 301 283 277 269 252 240 231 218 207 199 191 185 186 192 197 197 195 194 193 194 195 195 195 196 197 194 189 187 189 192 194 201 211 216 217 214 200 188 182 172 163 154 138 128 121 114 103
296 273 214 201 225 186 113 80 131 152 115 143 148 105 85 72 57 62 51 77 153 244 258 343 67 251 273 273 109 335 328 310 304 306 313 324 329 325 322 319 308 294 280 263 250 243 227 204 189 184 181 182 190 196 195 194 194 193 194 196 196 197 198 199 197 194 193 192 195 198 202 212 219 222 223 216 203 193 185 178 172 161 149 139 131 123
328 178 197 264 228 134 118 92 55 66 115 152 164 119 120 80 65 100 63 104 231 247 279 17 13 215 246 243 109 319 305 292 279 287 307 316 319 318 319 324 323 311 293 269 248 239 215 187 178 181 180 179 187 192 192 194 195 193 195 198 198 199 201 202 201 198 198 197 197 201 205 212 221 226 229 226 218 207 198 190 184 176 167 160 151 141
308 202 253 302 200 163 162 112 87 91 152 191 166 142 199 234 111 227 247 194 239 254 47 16 304 217 240 268 340 326 312 308 296 293 304 308 309 313 321 327 328 326 314 278 230 216 206 188 177 181 179 177 184 189 190 193 192 191 197 201 201 202 203 205 204 202 201 201 200 202 206 213 222 230 233 232 228 221 212 203 194 187 181 176 169 160
301 265 35 273 185 160 205 191 171 173 188 200 178 165 214 212 153 229 222 248 262 258 58 14 272 244 246 268 332 327 337 336 326 318 312 311 312 313 320 330 339 345 335 302 197 170 200 188 176 182 181 177 180 183 186 190 191 193 199 202 203 204 205 206 206 204 204 204 204 204 207 212 221 231 235 235 233 228 221 215 205 198 192 186 177 169
294 291 141 200 62 52 233 230 176 117 155 195 163 156 202 195 207 247 229 242 261 123 79 191 216 226 225 45 8 347 351 342 338 331 317 318 319 309 316 347 1 2 356 350 42 88 133 165 164 172 173 172 173 176 183 188 192 197 201 202 203 205 205 207 208 206 206 206 207 207 209 213 221 230 238 238 236 233 228 223 215 207 201 194 185 174
274 270 272 297 343 104 269 282 84 115 143 112 46 160 203 199 178 240 296 273 279 144 131 197 226 256 293 334 333 342 350 343 338 329 325 341 342 333 352 13 15 12 9 11 28 55 65 102 144 155 159 165 168 173 181 187 194 201 205 205 207 207 207 210 211 209 209 209 211 212 212 214 220 229 238 241 239 237 234 230 224 216 208 203 192 181
232 260 288 321 286 138 289 250 117 269 192 134 180 190 177 104 125 130 145 64 21 243 199 176 218 207 213 225 174 146 330 330 336 340 1 6 359 9 19 15 14 14 15 20 27 34 47 72 106 134 151 161 167 172 179 188 197 204 209 210 212 211 212 215 216 214 213 213 216 218 218 219 222 227 235 242 243 241 238 235 231 224 216 209 201 191
248 262 306 295 238 56 316 204 78 21 25 147 189 169 131 94 92 123 199 95 138 239 216 170 214 195 193 187 159 182 228 233 11 2 20 17 10 15 14 6 8 13 16 27 33 31 36 53 68 86 125 156 169 176 184 192 200 207 211 214 215 216 217 221 221 219 218 217 218 221 222 224 226 229 234 240 244 243 241 239 237 232 224 216 208 200
247 267 309 249 248 342 354 220 112 66 33 351 170 132 134 217 199 165 193 170 204 234 214 182 207 220 217 189 163 186 198 170 49 18 28 27 19 9 359 359 5 8 13 28 38 37 36 46 60 68 72 87 149 176 186 193 199 206 213 217 219 221 222 225 226 225 224 223 221 222 225 226 228 231 233 237 242 243 242 242 241 239 233 223 214 206
203 271 289 151 273 322 352 227 220 142 82 63 123 119 39 269 230 192 183 200 219 224 207 196 203 214 216 182 169 184 191 180 148 73 52 38 25 9 353 353 360 6 11 22 37 46 46 47 57 71 75 72 72 123 169 186 194 204 215 220 224 227 228 228 230 231 231 230 227 227 229 230 229 230 232 235 239 242 244 244 242 242 238 229 221 213
111 236 268 299 324 280 249 183 259 198 126 144 170 173 167 126 356 227 171 86 232 208 179 202 221 207 174 170 176 177 178 178 164 128 101 65 36 19 2 352 357 8 13 19 29 39 47 51 57 69 77 78 75 74 85 113 156 200 218 224 230 233 233 232 234 235 236 237 235 233 234 234 234 233 232 233 236 239 243 244 242 242 240 233 226 219
104 184 249 299 301 272 259 38 305 249 207 236 215 205 178 152 167 207 204 170 224 229 184 189 231 214 127 159 185 167 162 166 167 173 131 85 46 11 5 357 359 7 13 21 25 29 35 40 48 59 68 73 73 68 66 69 71 70 79 238 247 243 239 237 238 239 241 242 241 239 237 238 240 239 235 233 233 236 240 242 241 240 239 234 228 224
145 153 228 267 275 282 320 348 297 257 173 158 249 233 163 161 185 215 223 196 160 189 121 139 249 233 122 161 189 166 158 158 156 244 148 103 82 19 6 1 6 14 18 20 24 32 32 28 36 46 52 58 63 63 60 60 59 58 57 49 28 324 265 249 243 243 243 243 243 242 240 240 242 243 239 235 233 234 237 239 239 238 237 234 229 225
177 181 250 267 281 303 335 28 324 272 162 166 58 58 183 258 247 236 244 168 178 178 146 182 241 199 141 109 126 144 228 168 150 181 152 131 121 75 19 2 8 16 23 26 28 33 35 33 37 43 46 49 56 60 58 55 52 53 53 49 42 31 7 301 258 249 247 245 246 247 245 242 242 243 242 238 236 236 237 238 237 235 235 233 229 224
251 218 233 269 291 291 259 192 202 200 165 233 328 55 274 106 95 121 115 144 212 196 167 218 244 182 132 98 87 94 142 144 132 139 149 141 134 113 48 8 5 12 22 28 31 30 32 35 36 37 40 42 46 52 54 53 49 47 47 44 40 35 28 15 334 266 251 249 250 250 248 244 243 244 244 242 240 239 239 238 235 233 232 231 227 222
243 199 197 243 261 254 243 245 243 158 9 294 265 231 254 105 141 185 161 188 222 201 173 222 254 182 129 160 143 89 118 161 143 144 158 150 138 126 70 14 4 14 24 25 26 27 28 30 31 30 33 37 39 39 41 45 43 40 40 38 36 34 27 21 15 352 282 255 250 250 249 248 246 246 247 247 244 241 240 239 235 231 229 228 225 220
174 224 223 233 250 253 254 263 349 30 286 275 277 251 202 125 217 166 160 210 205 189 200 215 266 261 189 192 190 155 173 198 175 163 169 165 155 144 113 16 356 4 15 18 19 20 22 24 23 21 22 25 30 30 28 32 34 33 32 31 29 28 22 18 19 14 358 316 270 256 252 250 249 248 249 250 248 244 241 239 235 231 228 226 223 218
123 262 223 213 248 257 267 268 165 156 266 264 269 257 221 194 191 182 213 201 130 205 242 193 189 230 207 200 207 192 190 207 199 187 180 168 159 153 161 215 282 10 17 17 18 13 13 16 12 10 13 15 20 25 24 23 23 21 20 17 16 17 15 12 12 13 9 356 316 280 266 258 254 252 250 251 252 248 242 239 237 232 228 225 220 215
177 252 202 184 248 244 239 260 233 220 258 252 250 255 246 224 204 208 224 179 156 225 253 178 185 215 208 207 219 207 194 198 196 189 172 155 163 162 173 194 198 181 347 359 2 354 346 347 348 347 351 358 8 18 19 18 17 14 11 9 9 9 7 5 3 3 3 0 343 313 291 276 266 262 257 254 253 250 244 240 237 233 229 224 218 211
209 254 170 179 261 258 240 251 226 218 251 252 240 241 241 239 229 231 242 199 196 238 262 162 209 226 214 214 230 217 190 187 175 165 174 176 168 163 175 188 191 200 257 321 327 323 312 311 318 322 334 353 4 8 8 5 4 3 1 2 2 2 0 358 356 354 352 352 347 335 316 294 280 272 265 258 254 250 244 239 235 231 226 218 208 199
241 266 118 156 266 267 254 257 233 214 234 250 247 238 230 238 240 243 248 222 226 255 251 202 231 243 236 233 251 42 111 155 169 184 191 182 157 165 184 195 199 213 263 306 313 316 317 323 329 335 345 352 353 352 353 351 350 351 352 354 354 354 352 351 349 346 344 343 342 340 333 313 294 280 268 260 255 248 241 233 226 222 214 202 194 188
228 240 101 193 265 258 234 250 252 239 246 251 246 231 230 230 219 220 224 197 207 232 227 216 234 249 241 226 222 183 164 179 195 194 176 168 186 189 195 204 213 244 310 321 326 329 332 337 340 341 340 339 341 341 339 337 336 338 342 344 344 345 344 344 343 340 338 337 336 337 335 321 303 286 269 259 251 241 232 225 218 213 203 193 189 186
201 241 202 214 264 258 204 237 281 294 273 261 237 214 235 235 224 224 223 204 211 220 221 225 239 275 300 221 209 198 182 172 162 126 134 186 194 203 215 229 241 264 290 304 320 330 338 340 335 331 329 328 331 333 332 332 331 332 336 337 337 338 338 337 335 333 333 333 331 331 330 324 308 287 270 252 241 234 224 218 214 206 196 189 185 184
199 240 236 210 250 259 186 61 327 259 255 260 79 200 255 251 250 247 241 241 240 237 254 272 293 353 349 236 206 171 139 118 99 99 249 232 196 210 224 236 249 259 269 280 299 313 326 331 325 324 325 325 327 328 326 326 326 326 330 332 333 333 332 330 328 327 327 328 327 325 323 320 308 290 275 252 238 230 216 208 208 202 193 187 184 183
194 213 222 201 233 264 20 66 232 239 250 305 41 339 276 266 266 255 25 34 357 307 296 309 354 5 26 120 78 91 96 66 303 248 243 225 211 221 226 230 242 252 271 304 320 320 324 326 322 320 319 319 321 321 319 319 320 321 324 327 327 327 325 323 320 319 320 321 321 317 315 315 307 292 278 256 237 224 210 204 204 200 194 189 186 185
191 185 188 187 202 222 182 195 211 272 316 305 332 3 335 316 320 241 116 44 13 343 322 357 54 45 107 96 76 76 60 329 289 211 181 194 209 230 241 242 247 255 281 314 319 313 314 316 313 311 311 312 313 312 310 310 313 314 316 319 320 318 317 314 309 309 313 314 312 309 308 308 302 288 273 253 232 218 210 208 204 199 195 191 186 184
194 178 184 213 209 189 221 225 239 313 308 280 46 29 2 354 356 305 170 55 24 360 347 7 26 21 21 52 65 68 3 307 185 115 87 108 185 216 240 255 262 267 281 298 300 299 303 306 306 306 307 308 307 303 300 302 306 307 308 311 311 308 305 302 298 298 302 305 304 302 303 303 293 277 262 243 226 215 211 209 204 200 195 189 183 181
175 215 213 226 223 169 235 260 267 280 282 261 80 360 325 233 247 246 198 109 47 13 356 355 1 2 359 14 35 32 328 261 196 126 43 23 10 301 260 268 275 282 289 295 299 302 303 304 304 305 305 303 299 297 297 299 301 301 302 303 304 302 298 294 290 290 292 295 297 296 297 295 283 268 254 237 224 217 214 210 206 201 195 188 184 182
104 33 152 227 242 181 220 252 248 236 249 69 330 327 339 238 188 200 215 195 61 6 347 341 346 351 357 10 23 9 328 304 252 298 3 359 347 346 327 308 306 304 299 299 300 299 300 302 302 301 298 295 292 293 296 296 296 296 296 297 298 298 295 292 290 291 291 292 294 294 292 287 277 262 249 236 226 220 216 210 204 198 191 186 182 178
96 52 71 232 246 212 216 248 253 241 257 16 293 320 337 211 174 201 234 224 20 339 327 324 322 329 350 18 78 193 269 289 300 323 340 342 326 311 297 294 298 300 299 297 295 295 297 299 297 293 290 288 289 292 293 292 290 289 289 292 292 289 288 289 292 294 294 293 292 289 285 281 270 256 245 235 227 221 216 207 196 189 183 178 175 171
36 359 308 244 251 222 221 252 270 257 246 221 297 319 332 208 197 225 247 322 343 314 317 317 298 301 315 220 207 229 280 291 302 312 314 311 301 290 278 275 279 284 288 288 288 290 291 288 285 283 281 283 287 289 289 287 283 281 283 286 284 282 286 289 290 291 292 291 288 283 280 275 265 251 240 232 227 219 210 200 192 184 176 172 170 170
12 326 267 212 265 240 211 256 287 288 47 77 313 318 326 237 236 271 298 297 280 291 305 298 277 280 279 252 251 273 296 301 297 294 294 294 292 287 282 278 273 273 277 279 281 282 277 273 273 272 274 279 282 282 282 280 275 273 277 277 278 284 287 287 285 285 285 285 283 278 275 270 260 246 234 230 225 212 198 192 187 178 171 168 169 169
310 298 264 209 233 281 220 225 272 286 78 41 344 339 15 7 319 325 319 298 279 284 287 271 249 245 248 260 270 279 293 300 297 290 287 286 287 286 286 284 279 276 275 274 276 275 269 265 263 261 264 272 275 275 276 273 267 268 270 271 280 287 286 281 279 279 280 281 279 274 269 266 257 238 226 224 215 200 189 182 174 167 164 163 160 157
265 256 281 259 215 237 219 200 228 311 98 40 340 323 341 354 322 317 313 308 305 298 286 278 283 281 275 290 297 296 293 291 290 290 289 288 288 289 290 290 287 284 280 275 273 271 267 264 261 260 262 265 269 272 272 267 263 261 261 269 282 286 281 275 275 275 274 276 273 266 264 258 235 215 211 205 191 178 169 162 156 154 153 150 145 145
282 277 294 278 247 260 267 270 292 299 310 350 324 300 309 320 316 311 304 304 310 310 306 316 317 313 308 301 300 301 299 294 291 289 286 287 286 284 284 286 285 284 283 281 277 271 266 262 261 261 262 261 265 268 267 263 258 254 257 269 278 277 272 270 271 268 267 268 265 262 256 230 199 193 190 178 165 156 145 137 137 139 140 141 145 154
293 326 269 259 278 294 283 273 282 292 301 313 304 284 293 299 301 307 306 304 316 321 310 302 303 302 300 295 292 293 295 297 298 294 289 288 286 282 279 277 275 275 277 279 276 271 268 267 265 263 261 260 261 262 263 262 257 253 259 267 269 267 265 264 263 261 258 257 261 258 233 192 177 171 162 154 151 145 135 131 133 139 147 155 159 162
286 42 265 268 286 295 282 286 309 304 304 311 310 300 291 285 291 310 309 305 316 314 301 295 294 291 286 279 276 283 287 288 288 288 286 284 281 280 278 276 274 274 275 276 275 273 272 272 271 268 265 264 263 261 261 262 259 256 259 261 260 259 259 257 256 254 248 249 255 243 199 175 167 157 148 146 144 139 136 139 146 156 168 169 160 153
295 62 290 273 269 268 273 285 296 296 294 297 300 300 302 306 309 309 302 301 306 301 293 291 291 290 289 285 283 286 288 285 282 281 281 280 278 277 276 276 276 277 276 277 277 276 274 274 273 272 272 273 271 267 265 265 263 260 259 258 256 254 251 249 248 244 238 242 241 212 182 172 165 154 147 147 146 143 146 152 158 167 174 169 156 150
295 276 278 278 276 275 276 281 288 292 290 286 286 291 296 301 305 303 298 297 297 294 292 290 287 284 282 282 284 285 285 284 283 283 281 280 278 277 278 279 282 282 281 281 281 280 279 279 278 279 280 280 280 277 274 271 269 264 260 257 254 249 245 244 241 235 234 236 220 191 174 166 160 153 149 148 148 151 157 162 166 170 169 163 157 155
260 274 280 282 279 277 281 288 295 297 294 290 292 296 296 294 293 291 290 291 290 288 286 285 283 281 276 271 270 273 277 280 280 280 280 278 278 280 282 284 286 286 284 284 284 284 282 281 280 281 281 281 281 280 277 273 270 265 260 257 252 245 241 238 232 228 229 221 195 174 163 156 154 152 150 149 150 154 158 161 164 165 159 154 154 152
252 281 286 281 281 283 284 290 293 292 289 288 288 291 292 291 286 280 278 280 282 282 279 275 276 280 280 274 268 267 271 276 278 278 279 278 278 281 283 283 284 284 284 285 285 284 283 281 280 279 279 278 278 277 273 270 268 265 263 259 251 243 237 230 222 220 215 195 172 161 153 146 144 144 144 145 148 149 149 149 153 155 155 154 152 147